This demonstration page uses our WeatherBlox Daily Observations layout. Learn more.

Left ArrowRight Arrow

38.20091, -84.87328

Hourly Observations for February 5, 2020

Temp ( °F °C ) Dew Point ( °F °C ) Humidity (%) Winds ( mph kmh ) Pressure ( in mb ) Visibility ( mi km ) Precip ( " mm )
12:28 am 00:28 Cloudy 39 3.9 37 2.8 93 93 N 12 19 29.94 1014 10 16 0.00 0.00
12:53 am 00:53 Cloudy with Light Rain 38 3.3 35 1.7 89 89 NNE 12 19 29.92 1013 3 5 0.01 0.25
1:02 am 01:02 Cloudy with Light Rain 38 3.3 36 2.2 93 93 NNE 8 13 29.96 1015 3 4 0.00 0.00
1:10 am 01:10 Cloudy with Light Rain 38 3.3 35 1.7 89 89 NNE 10 17 29.96 1015 3 5 0.00 0.00
1:37 am 01:37 Cloudy 37 2.8 35 1.7 93 93 NNE 13 20 29.96 1015 8 13 0.00 0.00
1:49 am 01:49 Cloudy 37 3 36 2 93 93 NNE 9 15 29.95 1014 10 16 0.00 0.00
1:53 am 01:53 Cloudy 37 2.8 35 1.7 93 93 NNE 10 17 29.93 1013 10 16 0.00 0.00
2:53 am 02:53 Cloudy 37 2.8 35 1.7 93 93 NNE 10 17 29.95 1014 10 16 0.00 0.00
3:53 am 03:53 Cloudy with Mist and Fog 36 2.2 34 1.1 93 93 NNE 7 11 29.97 1015 5 8 0.00 0.00
4:10 am 04:10 Cloudy with Light Rain 36 2.2 34 1.1 93 93 N 9 15 30.01 1016 4 6 0.01 0.25
4:20 am 04:20 Cloudy with Light Rain 35 1.7 33 0.6 93 93 N 9 15 30.02 1016 3 5 0.01 0.25
4:53 am 04:53 Cloudy with Mist and Fog 35 1.7 33 0.6 93 93 NNE 12 19 29.99 1016 6 10 0.02 0.51
5:53 am 05:53 Cloudy 35 1.7 32 0 89 89 NE 10 17 29.98 1015 10 16 0.00 0.00
6:49 am 06:49 Cloudy 36 2 32 0 87 87 ENE 15 24 30.00 1016 10 16 0.00 0.00
6:53 am 06:53 Cloudy 35 1.7 32 0 89 89 ENE 15 24 29.98 1015 10 16 0.00 0.00
7:53 am 07:53 Cloudy 35 1.7 32 0 89 89 NE 12 19 30.01 1016 10 16 0.00 0.00
8:17 am 08:17 Cloudy with Mist and Fog 35 1.7 32 0 89 89 ENE 12 19 30.05 1017 3 4 0.00 0.00
8:35 am 08:35 Cloudy with Mist and Fog 35 1.7 32 0 89 89 ENE 10 17 30.04 1017 3 5 0.00 0.00
8:53 am 08:53 Cloudy with Mist and Fog 35 1.7 32 0 89 89 ENE 10 17 30.00 1016 6 10 0.00 0.00
9:06 am 09:06 Cloudy 35 1.7 32 0 89 89 ENE 13 20 30.04 1017 10 16 0.00 0.00
9:53 am 09:53 Cloudy 36 2.2 33 0.6 89 89 E 13 20 29.99 1016 10 16 0.00 0.00
10:53 am 10:53 Cloudy 37 2.8 33 0.6 86 86 E 10 17 29.97 1015 10 16 0.00 0.00
11:53 am 11:53 Cloudy 37 2.8 34 1.1 89 89 ENE 9 15 29.95 1014 10 16 0.00 0.00
12:53 pm 12:53 Cloudy 37 2.8 34 1.1 89 89 NE 9 15 29.91 1013 10 16 0.00 0.00
1:53 pm 13:53 Cloudy with Light Rain 37 2.8 35 1.7 93 93 ENE 10 17 29.86 1011 9 14 0.00 0.00
2:50 pm 14:50 Cloudy with Rain 37 3 36 2 93 93 ENE 13 20 29.82 1010 3 4 0.10 2.54
2:53 pm 14:53 Cloudy with Rain 37 2.8 35 1.7 93 93 ENE 13 20 29.80 1009 3 4 0.11 2.79
3:32 pm 15:32 Cloudy with Light Rain 37 2.8 35 1.7 93 93 ENE 13 20 29.78 1009 3 5 0.10 2.54
3:53 pm 15:53 Cloudy 37 2.8 35 1.7 93 93 ENE 14 22 29.74 1007 8 13 0.10 2.54
4:53 pm 16:53 Cloudy 38 3.3 35 1.7 89 89 ENE 10 17 29.72 1006 10 16 0.00 0.00
5:41 pm 17:41 Cloudy with Rain 38 3.3 35 1.7 89 89 ENE 10 17 29.72 1006 2 3 0.03 0.76
5:49 pm 17:49 Cloudy with Light Rain 37 3 36 2 93 93 ENE 9 15 29.72 1006 2 2 0.03 0.76
5:53 pm 17:53 Cloudy with Mist and Fog 37 2.8 36 2.2 96 96 ENE 12 19 29.70 1006 1 2 0.03 0.76
6:02 pm 18:02 Cloudy with Mist and Fog 37 2.8 36 2.2 96 96 ENE 9 15 29.71 1006 1 2 0.01 0.25
6:15 pm 18:15 Cloudy with Mist and Fog 37 2.8 36 2.2 96 96 ENE 10 17 29.70 1006 3 4 0.01 0.25
6:53 pm 18:53 Cloudy with Mist and Fog 37 2.8 36 2.2 96 96 ENE 10 17 29.66 1005 3 4 0.01 0.25
7:20 pm 19:20 Cloudy with Light Rain 38 3.3 36 2.2 93 93 NNE 6 9 29.68 1005 4 6 0.02 0.51
7:53 pm 19:53 Cloudy 38 3.3 36 2.2 93 93 NE 7 11 29.66 1004 8 13 0.02 0.51
8:53 pm 20:53 Cloudy with Mist and Fog 37 2.8 36 2.2 96 96 N 7 11 29.68 1005 3 4 0.01 0.25
9:39 pm 21:39 Cloudy with Light Rain 37 2.8 36 2.2 96 96 NE 6 9 29.67 1005 3 5 0.02 0.51
9:53 pm 21:53 Cloudy with Mist and Fog 37 2.8 36 2.2 96 96 ENE 6 9 29.65 1004 5 8 0.02 0.51
10:53 pm 22:53 Cloudy 38 3.3 36 2.2 93 93 NE 8 13 29.58 1002 9 14 0.00 0.00
11:53 pm 23:53 Cloudy 37 2.8 36 2.2 96 96 NNE 5 7 29.57 1002 7 11 0.00 0.00

Powered by AerisWeather